Location: Deer Run
(43.0494°N, 73.8472°W)
Time: 13:00:20
(UTC+00:00)

Daily predictions for brighter satellites

Satellite Brightness Start Highest point End
(mag) Time Altitude Azimuth Time Altitude Azimuth Time Altitude Azimuth
Cosmos 1092 Rocket 4.5 21:41:47 10° N 21:47:41 39° ENE 21:53:32 10° SE
Cosmos 1939 Rocket 3.1 21:51:36 10° SSE 21:55:34 48° ENE 21:59:32 10° N
H-2A R/B 2.9 21:51:47 10° ESE 21:56:05 27° ENE 22:00:17 10° N
Cosmos 1656 3.7 21:50:52 10° NNW 21:56:27 86° ENE 22:02:04 10° SSE
Cosmos 1812 4.5 21:57:00 10° ESE 21:59:05 14° E 22:01:10 10° NE
FengYun 1-2 T 4.2 21:54:20 10° SSE 21:59:52 69° ENE 22:05:24 10° N
COSMO-SKYMED 1 4.2 21:58:05 10° NE 22:00:51 16° E 22:03:36 10° SE
USA 276 2.0 22:01:41 10° WNW 22:04:48 80° NNE 22:07:55 10° ESE
Cosmos 1763 Rocket 3.4 22:01:16 10° SSW 22:06:19 81° ESE 22:11:26 10° NNE
Cosmos 1697 Rocket 2.8 22:03:11 10° NNW 22:08:42 55° ENE 22:14:12 10° SE
Cosmos 2034 Rocket 4.0 22:02:38 10° S 22:08:48 88° W 22:15:00 10° N
Meteor PRIRODA 4.1 22:06:05 10° S 22:09:41 64° W 22:13:18 10° NNW
Cosmos 1633 Rocket 4.5 22:07:52 10° NNE 22:10:44 17° ENE 22:13:35 10° ESE
Cosmos 841 Rocket 4.0 22:07:17 10° S 22:12:03 39° ESE 22:16:50 10° NE
Cosmos 1980 Rocket 2.8 22:07:26 10° N 22:12:31 32° NE 22:17:32 10° ESE
Cosmos 2369 4.1 22:07:13 10° NNW 22:12:37 41° ENE 22:17:58 10° SE
SL-24 R/B - RUBIN 2 4.5 22:10:22 10° NNW 22:14:19 28° NE 22:18:05 10° ESE
Cosmos 1602 3.9 22:12:40 10° N 22:16:26 49° E 22:20:11 10° SSE
Cosmos 1937 Rocket 3.7 22:11:48 10° N 22:17:01 52° ENE 22:22:11 10° SE
Meteor 1-25 Rocket 4.1 22:13:59 10° N 22:19:33 74° E 22:25:10 10° SSE
Cosmos 1782 3.1 22:17:35 10° SSE 22:21:24 45° E 22:25:14 10° NNE
Okean O Rocket 2.7 22:18:01 10° ESE 22:21:34 24° ENE 22:25:08 10° NNE
SL-16 R/B 3.8 22:19:30 10° NNE 22:22:16 14° NE 22:23:10 13° NE
NOAA 6 4.0 22:17:26 10° SSE 22:22:35 86° ENE 22:27:45 10° NNW
Cosmos 1743 Rocket 3.7 22:20:19 10° N 22:24:39 79° W 22:28:58 10° S
Cosmos 2082 Rocket 2.6 22:19:31 10° S 22:24:53 45° ESE 22:30:06 11° NE
Cosmos 990 Rocket 4.3 22:20:03 10° NNW 22:25:15 73° WSW 22:30:22 10° S
Cosmos 1151 Rocket 3.9 22:21:35 10° SSE 22:25:15 28° E 22:28:48 11° NNE
Meteor 2-21 4.5 22:20:02 10° N 22:26:01 56° ENE 22:31:56 10° SSE
USA 267 3.7 22:20:22 10° NE 22:26:43 56° NNW 22:33:03 10° WSW
ISS -2.6 22:24:41 10° NW 22:27:42 28° NNE 22:29:10 20° ENE
Cosmos 1634 Rocket 4.0 22:24:01 10° S 22:30:14 65° E 22:36:31 10° NNE
CORIOLIS 4.2 22:24:57 10° SSE 22:30:20 89° ENE 22:35:48 10° NNW
Cosmos 372 Rocket 4.3 22:25:39 10° N 22:30:38 43° ENE 22:35:38 10° SE
CZ-4B DEB 4.2 22:26:06 10° SSE 22:31:36 79° ENE 22:37:07 10° NNW
Cosmos 1340 Rocket 4.1 22:30:08 10° NNW 22:34:02 45° W 22:37:54 10° SSW
Cosmos 1666 Rocket 4.1 22:31:56 10° N 22:36:03 36° ENE 22:40:06 10° SE
CZ-2D R/B 3.1 22:32:28 10° SSE 22:36:16 65° ENE 22:40:04 10° N
Cosmos 2278 4.2 22:31:42 10° N 22:36:58 36° ENE 22:42:10 10° ESE
Cosmos 2026 Rocket 3.9 22:33:02 10° N 22:39:12 78° E 22:45:15 10° SSE
Cosmos 1328 Rocket 4.4 22:36:23 10° SSE 22:40:13 29° E 22:42:12 21° NE
MOS 1-B Rocket 4.1 22:34:59 10° NNE 22:40:53 64° ESE 22:47:36 10° S
Lacrosse 5 rocket 2.9 22:40:17 10° NNW 22:42:58 17° NNE 22:43:19 17° NNE
COSMOS 2406 3.3 22:37:24 10° SSW 22:43:10 80° WNW 22:48:56 10° NNE
USA 229 DEB 4.1 22:36:40 10° NW 22:44:05 79° WSW 22:51:56 10° SSE
USA 229 4.1 22:36:46 10° NW 22:44:11 80° WSW 22:52:01 10° SSE
ARGOS 3.4 22:42:00 10° SE 22:47:09 47° ENE 22:52:19 10° N
COSMOS 2455 2.8 22:42:16 10° SSW 22:48:17 82° ESE 22:53:25 15° NNE
Cosmos 1833 Rocket 3.3 22:43:09 10° SW 22:48:39 56° WNW 22:54:12 10° NNE
Cosmos 858 Rocket 4.5 22:43:44 10° NNW 22:49:04 89° ENE 22:54:20 10° SSE
SKYMED 2 3.7 22:45:24 13° NNE 22:49:13 52° E 22:53:27 10° S
Cosmos 1500 3.0 22:46:04 10° N 22:49:49 81° E 22:53:32 10° S
Meteor 2-14 Rocket 4.4 22:43:47 10° N 22:49:56 87° E 22:56:00 10° S
Landsat 5 3.9 22:50:05 28° NE 22:51:32 37° E 22:55:14 10° SSE
ATLAS CENTAUR R/B 3.4 22:41:43 10° WSW 22:51:46 57° NW 22:54:53 20° NNE
Meteor 2-6 Rocket 4.5 22:49:58 10° SSE 22:55:27 46° E 23:00:15 13° NNE
SL-08 RB Rocket 4.2 22:52:39 10° SE 22:56:55 37° ENE 23:01:10 10° N
PAYLOAD B 4.4 22:53:38 10° S 22:59:14 79° WSW 23:04:52 10° NNW
USA 234 3.5 22:52:52 10° SE 22:59:24 73° SW 23:05:57 10° NW
Cosmos 1570 Rocket 4.0 22:55:20 10° S 23:00:27 57° ESE 23:03:29 24° NE
Cosmos 540 Rocket 4.1 22:57:36 10° SW 23:02:36 56° WNW 23:07:38 10° NNE
Sich 1 3.6 23:00:47 10° NNW 23:05:00 58° W 23:09:14 10° S
CZ-4B R/B 3.1 22:59:46 10° SSE 23:05:12 83° ENE 23:10:35 10° NNW
GEOS 3 Rocket 4.2 23:05:32 33° ENE 23:06:42 37° NE 23:11:27 10° NNW
Cosmos 1814 Rocket 3.9 23:02:19 10° SSW 23:07:32 76° ESE 23:10:55 22° NNE
Cosmos 44 Rocket 4.1 23:03:59 10° NNW 23:08:02 31° NE 23:08:02 31° NE
CZ-2C R/B 2.4 23:04:47 10° NNE 23:10:01 85° ESE 23:15:11 10° SSW
Cosmos 1818 4.1 23:05:31 10° NNW 23:10:35 37° NE 23:11:07 36° ENE
GPS 2-04 Rocket1 4.4 23:07:50 10° WSW 23:11:20 27° S 23:12:58 20° SSE
Meteor 2-21 Rocket 4.4 23:05:50 10° N 23:11:59 86° W 23:18:02 10° S
Meteor 2-8 Rocket 4.4 23:06:20 10° S 23:12:24 65° E 23:18:29 10° NNE
NOSS 2-2 (D) 4.4 23:08:21 10° NW 23:13:48 88° ENE 23:21:28 10° SE
Meteor 1-10 Rocket 4.4 23:08:47 10° SSE 23:14:20 48° E 23:16:43 30° NE
Cosmos 1900 4.4 23:09:57 10° SSW 23:14:40 54° ESE 23:15:35 46° ENE
Meteor 1-11 Rocket 4.3 23:11:31 10° N 23:15:43 35° NE 23:15:43 35° NE
deb Chang Zheng 4 3.6 23:13:13 10° S 23:17:30 78° WSW 23:21:51 10° NNW
Cosmos 1666 2.6 23:15:42 10° N 23:19:26 82° W 23:23:08 10° S
Feng Yun 1-1 Rocket 4.3 23:20:26 10° SSE 23:26:18 68° ENE 23:32:09 10° N
CZ-4C R/B 2.9 23:21:40 10° NW 23:29:02 77° NE 23:36:21 15° SE
Cosmos 2360 Rocket 4.2 23:26:27 10° N 23:27:34 14° NNE 23:27:34 14° NNE
Cosmos 2208 Rocket 4.0 23:28:02 10° SSW 23:33:25 88° ESE 23:35:28 40° NNE
Cosmos 1812 4.0 23:30:50 10° SSW 23:34:26 39° WNW 23:36:50 18° NNW
H-2A R/B 3.4 23:30:29 10° SSW 23:35:19 39° W 23:40:05 10° NNW
COSMO-SKYMED 1 3.5 23:34:00 16° N 23:37:15 46° WNW 23:41:24 10° SW
Spot 2 4.4 23:42:25 10° SSE 23:47:32 86° E 23:52:42 10° NNW
Cosmos 1633 Rocket 4.1 23:44:35 10° NNW 23:48:45 44° W 23:52:54 10° SSW
Cosmos 921 Rocket 3.9 23:44:45 10° SSW 23:47:24 39° SSW 23:47:24 39° SSW
Cosmos 2322 Rocket 3.6 23:44:52 10° NNW 23:47:27 25° N 23:47:27 25° N
